User: anonymous   Login
Location: Laterina
(43.5167°N, 11.7167°E)
Time: 10:24:55
(UTC+00:00)
Language:

Cosmos 1766 - Orbit

View from above orbital plane
View from above orbital plane
View from above satellite
View from above satellite

Ground track
Ground track

The orbit data is extracted from the following two-line orbital elements,

1 16881U 86055A   21209.91723684  .00000265  00000-0  13787-4 0  9995
2 16881  82.5082 352.1348 0015537 332.8407  27.2009 15.11475144887168
Epoch (UTC): 28 July 2021 22:00:49
Eccentricity: 0.0015537
inclination: 82.5082°
perigee height: 521 km
apogee height: 542 km
right ascension of ascending node: 352.1348°
argument of perigee: 332.8407°
revolutions per day: 15.11475144
mean anomaly at epoch: 27.2009°
orbit number at epoch: 88716

The dashed part of the orbit path shows where the satellite is in the earth's shadow,  

DLR